Beaufort, NC

4:10 AM EDT on August 19, 2017 (GMT -0400)
Smith

Weather History for KMRH - October, 2013

Change the Weather History Date:

Wednesday, October 30, 2013

  Actual Average Record
Temperature  
Mean Temperature 64 °F -  
Max Temperature 73 °F 70 °F 83 °F (1971)
Min Temperature 55 °F 50 °F 33 °F (1976)
Degree Days  
Heating Degree Days 1    
Growing Degree Days 14 (Base 50)    
Moisture  
Dew Point 56 °F    
Average Humidity 83    
Maximum Humidity 100    
Minimum Humidity 49    
Precipitation  
Precipitation 0.00 in - - ()
Sea Level Pressure  
Sea Level Pressure 30.27 in    
Wind  
Wind Speed 4 mph (ENE)    
Max Wind Speed 7 mph    
Max Gust Speed -    
Visibility 7 miles    
Events      
Averages and records for this station are not official NWS values.
T = Trace of Precipitation, MM = Missing Value Source: NWS Daily Summary

Daily Weather History Graph

Daily Weather History Graph

Search for Another Location

Airport or City:

Trip Planner

Search our weather history database for the weather conditions in past years. The results will help you decide how hot, cold, wet, or windy it might be!

Date:

Astronomy

Oct. 30, 2013 Rise Set
Actual Time 7:25 AM EDT 6:14 PM EDT
Civil Twilight 6:59 AM EDT 6:40 PM EDT
Nautical Twilight 6:29 AM EDT 7:10 PM EDT
Astronomical Twilight 6:00 AM EDT 7:39 PM EDT
Moon 3:21 AM EDT (10/30) 3:50 PM EDT (10/30)
Length of Visible Light 11h 40m
Length of Day
10h 48m
Waning Crescent, 17% of the Moon is Illuminated
Oct 30
Waning Crescent
Nov 3
New
Nov 10
First Quarter
Nov 17
Full
Nov 25
Last Quarter

Hourly Weather History & Observations

Time (EDT) Temp. Dew Point Humidity Pressure Visibility Wind Dir Wind Speed Gust Speed Precip Events Conditions
12:58 AM 57.0 °F 55.0 °F 93% 30.30 in 9.0 mi NE 3.5 mph - N/A   Clear
1:58 AM 57.0 °F 55.0 °F 93% 30.29 in 8.0 mi NE 5.8 mph - N/A   Clear
2:58 AM 57.9 °F 55.0 °F 90% 30.28 in 8.0 mi NE 5.8 mph - N/A   Clear
3:58 AM 57.9 °F 55.9 °F 93% 30.28 in 8.0 mi NE 5.8 mph - N/A   Clear
4:58 AM 57.0 °F 55.9 °F 96% 30.28 in 7.0 mi NE 5.8 mph - N/A   Clear
5:58 AM 57.9 °F 57.0 °F 97% 30.27 in 5.0 mi NE 5.8 mph - N/A   Clear
6:44 AM 55.4 °F 55.4 °F 100% 30.28 in 1.8 mi Calm Calm - N/A   Clear
6:50 AM 55.4 °F 55.4 °F 100% 30.28 in 0.8 mi Calm Calm - N/A   Clear
6:54 AM 55.4 °F 55.4 °F 100% 30.28 in 1.2 mi Calm Calm - N/A   Clear
6:58 AM 55.9 °F 55.9 °F 100% 30.29 in 2.5 mi Calm Calm - N/A   Clear
7:14 AM 57.2 °F 55.4 °F 94% 30.28 in 5.0 mi NNE 4.6 mph - N/A   Clear
7:34 AM 55.4 °F 55.4 °F 100% 30.29 in 2.5 mi NNE 4.6 mph - N/A   Clear
7:43 AM 57.2 °F 55.4 °F 94% 30.29 in 3.0 mi NNE 4.6 mph - N/A   Clear
7:58 AM 57.9 °F 57.0 °F 97% 30.30 in 3.0 mi NE 4.6 mph - N/A   Clear
8:58 AM 62.1 °F 59.0 °F 90% 30.31 in 8.0 mi NE 3.5 mph - N/A   Clear
9:58 AM 66.0 °F 61.0 °F 84% 30.32 in 9.0 mi NE 5.8 mph - N/A   Clear
10:58 AM 70.0 °F 55.9 °F 61% 30.32 in 10.0 mi East 4.6 mph - N/A   Clear
11:58 AM 73.0 °F 55.9 °F 55% 30.30 in 10.0 mi Variable 3.5 mph - N/A   Unknown
12:58 PM 73.0 °F 57.9 °F 59% 30.27 in 10.0 mi Calm Calm - N/A   Clear
1:58 PM 73.0 °F 55.0 °F 53% 30.25 in 10.0 mi SW 5.8 mph - N/A   Clear
2:58 PM 72.0 °F 52.0 °F 49% 30.23 in 10.0 mi South 6.9 mph - N/A   Clear
3:58 PM 72.0 °F 53.1 °F 51% 30.22 in 10.0 mi SSW 5.8 mph - N/A   Clear
4:58 PM 71.1 °F 55.0 °F 57% 30.21 in 10.0 mi South 5.8 mph - N/A   Clear
5:58 PM 66.9 °F 57.0 °F 70% 30.22 in 10.0 mi SSE 3.5 mph - N/A   Clear
6:58 PM 64.0 °F 57.9 °F 80% 30.24 in 10.0 mi SSE 4.6 mph - N/A   Clear
7:58 PM 63.0 °F 57.0 °F 81% 30.24 in 10.0 mi SE 3.5 mph - N/A   Clear
8:58 PM 61.0 °F 57.9 °F 90% 30.25 in 10.0 mi Calm Calm - N/A   Clear
9:58 PM 59.0 °F 57.0 °F 93% 30.25 in 9.0 mi Calm Calm - N/A   Clear
10:58 PM 61.0 °F 57.0 °F 87% 30.24 in 10.0 mi SE 3.5 mph - N/A   Clear
11:58 PM 59.0 °F 57.0 °F 93% 30.24 in 6.0 mi Calm Calm - N/A   Clear